Retour au catalogue

FENGYUN 1C DEB

ActifSSO
NORAD 30299·DEBRIS·🇨🇳 China

Lancé May 10, 1999 depuis Taiyuan Satellite Launch Center

Loading…

Prochains Passages (prochaines 24 heures)

TLE

FraisSource: Space-Track

Époque: Sep 14, 2026, 03:42 UTC

1 30299U 99025ZL  26257.15422709  .00001482  00000-0  84153-3 0  9999
2 30299  99.0804 336.3826 0101363 317.8448  70.4310 14.09009038  1498

Suivez FENGYUN 1C DEB en temps réel avec AllMySat

Download on the App Store